Regional Weather Roundup
Issued by NWS Cleveland, OH

Home | Current Version | Previous Version | Text Only | Print | Product List | Glossary Off
Versions: 1 2 3 4 5 6 7 8 9 10 11 12 13 14 15 16 17 18 19 20 21 22 23 24 25 26 27 28 29 30 31 32 33 34 35 36 37 38 39 40 41 42 43 44 45 46 47 48 49 50

000
ASUS41 KCLE 051710
RWRCLE
OHIO REGIONAL WEATHER ROUNDUP
NATIONAL WEATHER SERVICE WILMINGTON, OH
100 PM EDT SUN JUL 05 2015

NOTE: "FAIR" INDICATES FEW OR NO CLOUDS BELOW 12,000 FEET WITH NO
SIGNIFICANT WEATHER AND/OR OBSTRUCTIONS TO VISIBILITY.

OHZ001>008-015>018-024>027-034-035-043-044-051800-
   NORTHWEST OHIO

CITY           SKY/WX    TMP DP  RH WIND       PRES   REMARKS
DEFIANCE       PTSUNNY   79  59  50 SE7       30.12F
FINDLAY        MOSUNNY   79  56  45 NE5       30.12S
TOLEDO EXPRESS PTSUNNY   79  55  43 VRB3      30.12S
TOLEDO EXEC    MOSUNNY   77  55  46 E3        30.13F
LIMA           PTSUNNY   78  56  46 E3        30.13S
$$

OHZ009>014-019>023-028>033-038-089-051800-
   NORTHEAST OHIO

CITY           SKY/WX    TMP DP  RH WIND       PRES   REMARKS
CLE-HOPKINS    MOSUNNY   79  50  36 SE8       30.15F
CLE-LAKEFRONT  PTSUNNY   76  61  59 N8        30.12F
CUY CO. ARPT   MOSUNNY   81  59  47 SE7       30.15F
LORAIN-ELYRIA  MOSUNNY   77  53  43 CALM      30.14F
ASHTABULA      MOSUNNY   78  58  49 SE3       30.16F
AKRON-CANTON   PTSUNNY   77  56  48 CALM      30.15F
WOOSTER        MOSUNNY   77  59  53 MISG      30.16S
MANSFIELD      PTSUNNY   75  57  53 VRB3      30.15F
YOUNGSTOWN     MOSUNNY   76  53  44 E8        30.16F
$$

OHZ042-051>053-060>062-070>072-077>081-051800-
  SOUTHWEST OHIO

CITY           SKY/WX    TMP DP  RH WIND       PRES   REMARKS
CINC-COVINGTON CLOUDY    75  61  61 E7        30.11F
CINC-LUNKEN    CLOUDY    75  63  66 E7        30.11S
HAMILTON       CLOUDY    76  60  57 E6        30.11F
DAYTON         CLOUDY    79  59  50 NE7       30.13F
WRIGHT-PAT AFB CLOUDY    76  57  51 E6        30.11F
DAYTON GENERAL CLOUDY    74  61  63 E6        30.11F
WILMINGTON     CLOUDY    74  58  57 E3        30.12S
$$

OHZ036-037-039>041-045>050-054>059-063>069-073>076-082>088-051800-
  CENTRAL AND SOUTHEAST OHIO

CITY           SKY/WX    TMP DP  RH WIND       PRES   REMARKS
COLUMBUS       CLOUDY    78  59  51 NE6       30.11F
OSU AIRPORT    PTSUNNY   78  59  51 NE5       30.12F
BOLTON FIELD   SUNNY     75  61  60 E5        30.13S
RICKENBACK AFB CLOUDY    76  63  64 E5        30.11S
NEWARK         PTSUNNY   77  63  61 NE3       30.12F
MARION         PTSUNNY   76  58  53 CALM      30.14F
LANCASTER      CLOUDY    79  65  62 NE6       30.12S
ZANESVILLE     PTSUNNY   79  61  53 VRB5      30.12S
NEW PHILLY     MOSUNNY   77  61  57 NE5       30.14S
$$


USA.gov is the U.S. government's official web portal to all federal, state and local government web resources and services.